www.pogodaiklimat.ru

Погода и климат >> Архив погоды >> Япония >> Иокогама


ПОГОДА в Иокогаме

  • Прогноз погоды в Иокогаме
  • Монитор погоды в Иокогаме

АРХИВ ПОГОДЫ в Иокогаме

Время (UTC), дата Ветер
(напр.,м/с)
 
Видим.   Явления Облачность Т
(С)
Тd
(С)
f
(%)
Тe
(С)
Тes
(С)
Комфортность P
(гПа)
Po
(гПа)
Тmin
(С)
Tmax
(С)
R
(мм)
R24
(мм)
S
(см)
10 10.08 Ю 4 20 км н/о +28.7 +23.6 74 +39 +39 очень
душно
1008.0 1003.2
11 10.08 Ю 4 20 км н/о +28.3 +24.1 78 +39 +39 очень
душно
1008.6 1003.8
12 10.08 Ю 4 20 км н/о +28.0 +24.6 82 +40 +40 очень
душно
1009.0 1004.2 +33.7
13 10.08 Ю 4 20 км н/о +27.8 +24.7 83 +39 +39 очень
душно
1008.9 1004.1
14 10.08 Ю 3 20 км н/о +27.6 +24.3 82 +39 +39 очень
душно
1008.8 1004.0
15 10.08 Ю 3 20 км н/о +27.3 +24.2 83 +38 +38 очень
душно
1008.2 1003.4
16 10.08 ЮЗ 2 20 км н/о +27.2 +23.9 82 +37 +37 очень
душно
1008.1 1003.3
17 10.08 ЮЗ 3 20 км н/о +26.9 +23.8 83 +37 +37 очень
душно
1007.8 1003.0
18 10.08 ЮЗ 3 20 км н/о +26.7 +23.8 84 +37 +37 очень
душно
1007.9 1003.1
19 10.08 Ю 2 20 км н/о +26.6 +23.9 85 +37 +37 очень
душно
1008.1 1003.3
20 10.08 З 2 20 км н/о +26.2 +24.1 88 +36 +36 очень
душно
1008.4 1003.5
21 10.08 ЮЗ 2 20 км н/о +27.0 +23.9 83 +37 +37 очень
душно
1009.0 1004.2
22 10.08 ЮЗ 1 20 км н/о +27.6 +23.8 80 +38 +38 очень
душно
1009.1 1004.3
23 10.08 В 2 20 км н/о +30.2 +24.8 73 +43 +43 опасность
перегрева
1009.0 1004.2
00 11.08 В 2 20 км н/о +30.9 +24.1 67 +43 +43 опасность
перегрева
1009.3 1004.5 +26.0
01 11.08 В 3 20 км н/о +31.9 +22.0 56 +41 +41 опасность
перегрева
1009.3 1004.5
02 11.08 В 3 20 км н/о +33.8 +20.9 47 +41 +41 опасность
перегрева
1008.9 1004.2
03 11.08 ЮВ 2 20 км н/о +34.3 +21.4 47 +42 +42 опасность
перегрева
1008.5 1003.8
04 11.08 ЮВ 4 20 км н/о +34.9 +23.6 52 +46 +46 опасность
перегрева
1007.9 1003.2
05 11.08 Ю 5 20 км н/о +34.2 +24.8 58 +47 +47 опасность
перегрева
1007.5 1002.8
06 11.08 Ю 4 20 км н/о +32.8 +25.1 64 +47 +47 опасность
перегрева
1007.2 1002.5
07 11.08 Ю 4 20 км н/о +32.1 +24.2 63 +44 +44 опасность
перегрева
1007.4 1002.7
08 11.08 Ю 4 20 км н/о +31.1 +24.3 67 +43 +43 опасность
перегрева
1007.3 1002.5
09 11.08 ЮВ 3 20 км н/о +30.7 +25.1 72 +44 +44 опасность
перегрева
1007.9 1003.1
10 11.08 ЮВ 3 20 км н/о +29.9 +25.0 75 +43 +43 опасность
перегрева
1008.5 1003.7
11 11.08 Ю 4 20 км н/о +29.4 +24.3 74 +41 +41 опасность
перегрева
1009.6 1004.8
12 11.08 ЮВ 3 20 км н/о +28.0 +25.0 84 +40 +40 очень
душно
1009.9 1005.1 +35.6
13 11.08 В 3 19 км н/о +27.3 +25.1 88 +39 +39 очень
душно
1010.1 1005.3
14 11.08 В 2 14 км н/о +26.9 +25.1 90 +39 +39 очень
душно
1010.2 1005.4
15 11.08 В 3 12 км н/о +26.5 +24.9 91 +38 +38 очень
душно
1009.9 1005.0
16 11.08 В 2 7000 м дымка н/о +26.8 +25.0 90 +39 +39 очень
душно
1009.2 1004.4
17 11.08 В 3 10 км н/о +26.9 +24.9 89 +39 +39 очень
душно
1009.1 1004.3
18 11.08 В 3 9000 м в посл. час дождь н/о +26.5 +24.7 90 +38 +38 очень
душно
1009.2 1004.3 0.0
19 11.08 В 3 8000 м дымка н/о +26.4 +24.6 90 +37 +37 очень
душно
1008.5 1003.7
20 11.08 В 2 12 км н/о +26.5 +24.7 90 +38 +38 очень
душно
1008.8 1004.0
21 11.08 В 3 9000 м дымка н/о +26.6 +24.8 90 +38 +38 очень
душно
1009.0 1004.2
22 11.08 В 3 8000 м дымка н/о +27.3 +25.0 87 +39 +39 очень
душно
1009.2 1004.4
23 11.08 В 3 7000 м слаб. дождь н/о +27.4 +24.9 86 +39 +39 очень
душно
1009.3 1004.5
00 12.08 С 2 16 км в посл. час дождь н/о +27.5 +24.6 84 +39 +39 очень
душно
1009.4 1004.6 +26.3 0.0
01 12.08 В 2 6000 м слаб. дождь н/о +27.0 +24.7 87 +38 +38 очень
душно
1009.5 1004.7
02 12.08 С 1 8000 м в посл. час дождь н/о +29.4 +25.4 79 +43 +43 опасность
перегрева
1009.0 1004.2
03 12.08 В 2 20 км в посл. час дождь н/о +30.5 +24.4 70 +43 +43 опасность
перегрева
1008.5 1003.7
04 12.08 В 2 20 км н/о +32.3 +24.1 62 +44 +44 опасность
перегрева
1007.9 1003.2
05 12.08 СВ 2 20 км н/о +32.2 +23.7 61 +44 +44 опасность
перегрева
1007.5 1002.8
06 12.08 В 3 20 км {дождь} н/о +32.2 +23.7 61 +44 +44 опасность
перегрева
1007.4 1002.7 0.0
07 12.08 ЮВ 3 20 км н/о +32.3 +24.4 63 +45 +45 опасность
перегрева
1007.2 1002.5
08 12.08 В 3 20 км н/о +30.9 +24.3 68 +43 +43 опасность
перегрева
1007.4 1002.6
09 12.08 ЮВ 2 20 км н/о +30.7 +24.1 68 +43 +43 опасность
перегрева
1007.3 1002.5
10 12.08 ЮВ 2 20 км н/о +29.7 +24.1 72 +41 +41 опасность
перегрева
1007.7 1002.9
11 12.08 ЮВ 2 20 км н/о +29.3 +24.2 74 +41 +41 опасность
перегрева
1008.4 1003.6
12 12.08 ЮВ 2 20 км н/о +28.7 +24.7 79 +41 +41 опасность
перегрева
1008.6 1003.8 +33.6 0.0
13 12.08 ЮВ 2 20 км н/о +28.5 +25.1 82 +41 +41 опасность
перегрева
1008.3 1003.5
14 12.08 В 2 20 км н/о +28.1 +25.1 84 +41 +41 опасность
перегрева
1008.2 1003.4
15 12.08 В 1 20 км н/о +28.0 +25.4 86 +41 +41 опасность
перегрева
1007.5 1002.7
16 12.08 В 2 20 км н/о +28.0 +25.6 87 +41 +41 опасность
перегрева
1007.1 1002.3
17 12.08 В 3 18 км н/о +27.7 +25.5 88 +41 +41 опасность
перегрева
1006.7 1001.9
18 12.08 В 2 20 км н/о +27.8 +25.4 87 +41 +41 опасность
перегрева
1006.4 1001.6
19 12.08 В 3 18 км н/о +27.7 +25.7 89 +41 +41 опасность
перегрева
1006.0 1001.2
20 12.08 В 2 16 км н/о +28.1 +25.5 86 +41 +41 опасность
перегрева
1006.4 1001.6
21 12.08 В 3 19 км н/о +28.3 +25.9 87 +42 +42 опасность
перегрева
1006.7 1001.9
22 12.08 С 2 11 км слаб. дождь н/о +27.9 +25.9 89 +42 +42 опасность
перегрева
1006.7 1001.9
23 12.08 В 3 2400 м дождь н/о +27.2 +26.2 94 +41 +41 опасность
перегрева
1007.0 1002.2
00 13.08 В 3 4800 м слаб. дождь н/о +27.1 +26.2 95 +41 +41 опасность
перегрева
1007.2 1002.4 +26.4 3
01 13.08 С 3 20 км в посл. час дождь н/о +29.2 +25.8 82 +44 +44 опасность
перегрева
1007.0 1002.2
02 13.08 С 2 20 км н/о +30.7 +25.1 72 +44 +44 опасность
перегрева
1006.6 1001.8
03 13.08 В 2 20 км {дождь} н/о +33.2 +25.7 65 +48 +48 опасность
перегрева
1006.1 1001.4
04 13.08 С 3 20 км н/о +33.8 +24.1 57 +46 +46 опасность
перегрева
1005.5 1000.8
05 13.08 ЮВ 5 5000 м слаб. дождь н/о +28.1 +26.3 90 +43 +43 опасность
перегрева
1006.2 1001.4
06 13.08 Ю 2 20 км слаб. дождь н/о +28.2 +25.2 84 +41 +41 опасность
перегрева
1006.0 1001.2 0.5
07 13.08 ЮВ 2 20 км в посл. час дождь н/о +31.4 +25.0 69 +45 +45 опасность
перегрева
1005.6 1000.8
08 13.08 Ю 2 20 км н/о +30.5 +24.9 72 +44 +44 опасность
перегрева
1005.5 1000.7
09 13.08 Ю 3 20 км {дождь} н/о +30.2 +25.1 74 +44 +44 опасность
перегрева
1005.7 1000.9
10 13.08 Ю 3 20 км н/о +29.9 +25.7 78 +44 +44 опасность
перегрева
1006.5 1001.7
11 13.08 Ю 3 20 км н/о +29.3 +25.5 80 +43 +43 опасность
перегрева
1007.4 1002.6
12 13.08 Ю 2 19 км {дождь} н/о +28.7 +25.7 84 +43 +43 опасность
перегрева
1007.7 1002.9 +34.3 0.5
13 13.08 Ю 2 5000 м дымка н/о +28.6 +25.6 84 +42 +42 опасность
перегрева
1007.6 1002.8
14 13.08 В 2 17 км н/о +28.3 +25.5 85 +42 +42 опасность
перегрева
1007.4 1002.6
15 13.08 ЮВ 2 13 км н/о +28.5 +25.9 86 +43 +43 опасность
перегрева
1007.2 1002.4
16 13.08 В 2 11 км в посл. час дождь н/о +28.0 +26.0 89 +42 +42 опасность
перегрева
1006.8 1002.0
17 13.08 В 2 9000 м дымка н/о +27.8 +26.0 90 +42 +42 опасность
перегрева
1006.6 1001.8
18 13.08 ЮВ 3 4600 м слаб. дождь н/о +27.4 +26.2 93 +41 +41 опасность
перегрева
1006.4 1001.6 0.0
19 13.08 В 2 9000 м в посл. час дождь н/о +27.0 +26.1 95 +41 +41 опасность
перегрева
1006.5 1001.7
20 13.08 В 2 14 км н/о +27.2 +26.2 94 +41 +41 опасность
перегрева
1006.5 1001.7
21 13.08 В 2 12 км {дождь} н/о +27.6 +26.4 93 +42 +42 опасность
перегрева
1006.6 1001.8
22 13.08 В 2 11 км н/о +28.2 +26.0 88 +42 +42 опасность
перегрева
1006.8 1002.0
23 13.08 В 3 10 км слаб. дождь н/о +28.6 +26.2 87 +43 +43 опасность
перегрева
1006.8 1002.0
00 14.08 ЮВ 2 20 км в посл. час дождь н/о +28.1 +26.7 92 +44 +44 опасность
перегрева
1006.9 1002.1 +27.0 5
01 14.08 ЮВ 3 20 км н/о +30.6 +27.6 84 +49 +49 опасность
перегрева
1006.6 1001.8
02 14.08 ЮВ 3 15 км н/о +31.6 +26.2 73 +48 +48 опасность
перегрева
1005.9 1001.1
03 14.08 Ю 5 20 км в посл. час дождь н/о +31.7 +25.8 71 +47 +47 опасность
перегрева
1005.6 1000.9
04 14.08 Ю 5 20 км в посл. час дождь н/о +30.7 +26.2 77 +46 +46 опасность
перегрева
1005.7 1000.9
05 14.08 Ю 5 16 км в посл. час дождь н/о +32.1 +25.9 70 +48 +48 опасность
перегрева
1005.4 1000.7
06 14.08 Ю 5 19 км {дождь} н/о +31.2 +25.3 71 +45 +45 опасность
перегрева
1005.4 1000.6 1
07 14.08 Ю 5 20 км в посл. час дождь н/о +31.1 +25.5 72 +45 +45 опасность
перегрева
1005.5 1000.7
08 14.08 Ю 5 17 км н/о +30.5 +25.1 73 +44 +44 опасность
перегрева
1005.6 1000.8
09 14.08 Ю 5 17 км {дождь} н/о +29.6 +25.1 77 +43 +43 опасность
перегрева
1005.6 1000.8
10 14.08 Ю 4 17 км н/о +29.2 +25.6 81 +43 +43 опасность
перегрева
1005.9 1001.1
11 14.08 Ю 4 14 км н/о +28.9 +25.5 82 +43 +43 опасность
перегрева
1006.3 1001.5
12 14.08 ЮВ 3 14 км слаб. дождь н/о +28.9 +25.7 83 +43 +43 опасность
перегрева
1006.3 1001.5 +32.7 1
13 14.08 ЮВ 5 12 км в посл. час дождь н/о +28.7 +25.9 85 +43 +43 опасность
перегрева
1006.1 1001.3
14 14.08 Ю 5 10 км в посл. час дождь н/о +28.8 +26.2 86 +44 +44 опасность
перегрева
1005.9 1001.1
15 14.08 Ю 6 9000 м дымка {дождь} н/о +28.6 +26.0 86 +43 +43 опасность
перегрева
1005.7 1000.9
16 14.08 Ю 6 8000 м дымка н/о +28.5 +26.1 87 +43 +43 опасность
перегрева
1005.2 1000.4
17 14.08 Ю 6 8000 м дымка н/о +28.5 +26.1 87 +43 +43 опасность
перегрева
1005.1 1000.3
18 14.08 Ю 5 8000 м в посл. час дождь н/о +28.4 +26.0 87 +43 +43 опасность
перегрева
1004.9 1000.1 0.0
20 14.08 Ю 5 6000 м в посл. час дождь н/о +27.6 +26.6 94 +42 +42 опасность
перегрева
1005.2 1000.4
21 14.08 Ю 4 7000 м дымка {дождь} н/о +27.7 +26.3 92 +42 +42 опасность
перегрева
1005.4 1000.6
23 14.08 Ю 6 12 км н/о +29.0 +25.6 82 +43 +43 опасность
перегрева
1004.9 1000.1
00 15.08 Ю 7 15 км {дождь} н/о +29.7 +25.5 78 +44 +44 опасность
перегрева
1004.5 999.7 +27.4 3
01 15.08 Ю 9 16 км в посл. час дождь н/о +31.1 +25.7 73 +46 +46 опасность
перегрева
1003.8 999.1
03 15.08 Ю 9 14 км в посл. час дождь н/о +29.9 +25.7 78 +44 +44 опасность
перегрева
1003.3 998.5
04 15.08 Ю 8 13 км слаб. дождь н/о +29.8 +25.6 78 +44 +44 опасность
перегрева
1002.8 998.0
06 15.08 Ю 8 13 км в посл. час дождь н/о +29.6 +25.6 79 +44 +44 опасность
перегрева
1001.7 996.9 0.0
08 15.08 Ю 6 15 км в посл. час дождь н/о +27.6 +26.2 92 +42 +42 опасность
перегрева
1001.3 996.5
09 15.08 Ю 7 8000 м в посл. час дождь н/о +27.8 +26.0 90 +42 +42 опасность
перегрева
1001.1 996.3
10 15.08 Ю 8 10 км н/о +27.9 +25.9 89 +42 +42 опасность
перегрева
1001.1 996.3
11 15.08 Ю 8 10 км н/о +28.1 +25.9 88 +42 +42 опасность
перегрева
1001.1 996.3
12 15.08 Ю 9 10 км в посл. час дождь н/о +28.2 +25.8 87 +42 +42 опасность
перегрева
1001.1 996.3 +32.2 7
13 15.08 Ю 9 9000 м дымка н/о +28.1 +25.7 87 +42 +42 опасность
перегрева
1000.7 995.9
14 15.08 Ю 8 9000 м в посл. час дождь н/о +28.2 +25.6 86 +42 +42 опасность
перегрева
1000.3 995.5
15 15.08 Ю 7 10 км {дождь} н/о +28.3 +25.5 85 +42 +42 опасность
перегрева
999.6 994.8
16 15.08 Ю 8 10 км н/о +28.3 +25.3 84 +41 +41 опасность
перегрева
998.9 994.1
17 15.08 Ю 8 9000 м слаб. дождь н/о +28.3 +25.3 84 +41 +41 опасность
перегрева
998.6 993.8
18 15.08 Ю 8 10 км в посл. час дождь н/о +28.4 +24.4 79 +40 +40 очень
душно
998.6 993.8 0.0
19 15.08 Ю 8 9000 м дымка н/о +28.2 +24.6 81 +40 +40 очень
душно
998.5 993.7
20 15.08 Ю 8 8000 м слаб. дождь н/о +28.3 +24.9 82 +41 +41 опасность
перегрева
998.5 993.7
21 15.08 ЮЗ 9 7000 м слаб. дождь н/о +28.2 +25.0 83 +41 +41 опасность
перегрева
998.7 993.9
22 15.08 ЮЗ 8 6000 м слаб. дождь н/о +28.0 +25.2 85 +41 +41 опасность
перегрева
998.7 993.9
23 15.08 ЮЗ 9 6000 м в посл. час дождь н/о +28.1 +25.1 84 +41 +41 опасность
перегрева
998.6 993.8
00 16.08 Ю 9 6000 м в посл. час дождь н/о +28.2 +25.0 83 +41 +41 опасность
перегрева
998.7 993.9 +27.9 0.0
01 16.08 Ю 8 6000 м дымка н/о +28.2 +25.2 84 +41 +41 опасность
перегрева
998.8 994.0
02 16.08 Ю 9 6000 м дымка н/о +28.4 +25.0 82 +41 +41 опасность
перегрева
998.0 993.2
03 16.08 Ю 8 7000 м дымка н/о +28.5 +24.9 81 +41 +41 опасность
перегрева
998.1 993.3
04 16.08 Ю 8 7000 м дымка н/о +29.0 +25.2 80 +42 +42 опасность
перегрева
997.7 992.9
05 16.08 ЮЗ 7 8000 м дымка н/о +30.2 +25.1 74 +44 +44 опасность
перегрева
997.3 992.6
06 16.08 ЮЗ 8 9000 м дымка н/о +30.5 +24.9 72 +44 +44 опасность
перегрева
997.5 992.8
07 16.08 ЮЗ 8 9000 м дым н/о +29.6 +24.7 75 +42 +42 опасность
перегрева
997.6 992.9
08 16.08 ЮЗ 5 9000 м дым н/о +29.4 +24.5 75 +42 +42 опасность
перегрева
998.2 993.5
09 16.08 ЮЗ 7 10 км н/о +28.9 +24.0 75 +40 +40 очень
душно
998.7 993.9
11 16.08 ЮЗ 6 9000 м дымка н/о +28.1 +24.1 79 +39 +39 очень
душно
999.9 995.1
13 16.08 ЮЗ 8 14 км н/о +28.2 +23.4 75 +38 +38 очень
душно
1000.0 995.2
15 16.08 ЮЗ 7 13 км н/о +28.0 +23.4 76 +38 +38 очень
душно
999.9 995.1
16 16.08 ЮЗ 6 15 км н/о +27.9 +23.3 76 +38 +38 очень
душно
1000.0 995.2
17 16.08 ЮЗ 7 14 км н/о +27.8 +23.2 76 +37 +37 очень
душно
1000.0 995.2
18 16.08 ЮЗ 6 14 км н/о +27.7 +23.1 76 +37 +37 очень
душно
1000.4 995.6
19 16.08 ЮЗ 7 14 км н/о +27.6 +23.2 77 +37 +37 очень
душно
1000.7 995.9
20 16.08 ЮЗ 7 14 км н/о +27.6 +23.2 77 +37 +37 очень
душно
1001.2 996.4
21 16.08 ЮЗ 5 14 км н/о +27.8 +23.2 76 +37 +37 очень
душно
1001.8 997.0
22 16.08 ЮЗ 7 14 км н/о +28.8 +22.8 70 +38 +38 очень
душно
1002.0 997.2
23 16.08 ЮЗ 6 14 км н/о +30.0 +23.0 66 +40 +40 очень
душно
1002.2 997.4
00 17.08 ЮЗ 6 15 км н/о +30.9 +23.3 64 +41 +41 опасность
перегрева
1002.1 997.4 +27.4
01 17.08 ЮЗ 5 14 км н/о +31.7 +23.5 62 +43 +43 опасность
перегрева
1002.2 997.5
02 17.08 ЮЗ 6 17 км н/о +32.5 +24.0 61 +44 +44 опасность
перегрева
1001.9 997.2
03 17.08 ЮЗ 5 18 км н/о +33.2 +23.8 58 +45 +45 опасность
перегрева
1001.8 997.1
04 17.08 ЮЗ 5 16 км н/о +33.0 +23.6 58 +44 +44 опасность
перегрева
1001.5 996.8
05 17.08 ЮЗ 5 17 км н/о +33.3 +23.6 57 +44 +44 опасность
перегрева
1001.2 996.5
06 17.08 ЮЗ 4 16 км н/о +32.9 +23.8 59 +44 +44 опасность
перегрева
1001.1 996.4
07 17.08 Ю 4 14 км н/о +32.7 +24.7 63 +46 +46 опасность
перегрева
1001.2 996.5
08 17.08 ЮЗ 4 16 км н/о +31.7 +24.3 65 +44 +44 опасность
перегрева
1001.4 996.7
09 17.08 Ю 3 14 км н/о +30.8 +24.5 69 +43 +43 опасность
перегрева
1001.7 997.0

 

Местоположение метеостанции Иокогама (Япония): широта 35.43 долгота 139.65 высота над уровнем моря 42 м.

В архиве по умолчанию представлена погода в Иокогаме за последнюю неделю. Архивные данные за месяц целиком и за предыдущие месяцы, начиная с января 2011 года, Вы можете получить, выбрав интересующий диапазон дат из раскрывающегося списка и нажав кнопку "Ввод!".


*Определитесь, кто Вы:
робот инопланетянин человек

Внимание! Время в таблицах - всемирное. Для получения местного времени необходимо прибавить поправку, которая равна 9 ч.

Смотрите также архив погоды в соседних городах и на ближайших метеорологических станциях:

Погода в Токио (Япония) (30 км)
Погода в Тибе (Япония) (45 км)
Погода в Татеяме (Япония) (54 км)
Погода в Аджиро (Япония) (65 км)
Погода в Кацууре (Япония) (68 км)
Погода в Мисиме (Япония) (74 км)
Погода на Осиме (Япония) (80 км)
Погода на Озере Кавагучи (Япония) (81 км)
Погода в Чичибу (Япония) (81 км)
Погода на Фудзияме (Япония) (84 км)

Пояснения к столбцам:

Ветер - указаны скорость ветра в м/с - средняя за 10 мин, порывы в срок и между сроками (в фигурных скобках) и направление, откуда дует ветер: С - северный, СВ - северо-восточный, В - восточный, ЮВ - юго-восточный, Ю - южный, ЮЗ - юго-западный, З - западный, СЗ - северо-западный.
Видимость - горизонтальная дальность видимости в метрах или километрах. При видимости от 1 до 10 км при отсутствии осадков обычно наблюдается дымка, при ухудшении видимости до 1 км и менее - туман. В сухую погоду видимость может ухудшаться дымом, пылью или мглою.
Явления - указаны атмосферные явления, наблюдавшиеся в срок или в последний час перед сроком; фигурными скобками обозначены явления, наблюдавшиеся между сроками (за 1-3 часа до срока); квадратными скобками обозначены град или гололедные отложения с указанием их диаметра в мм.
Облачность - указаны через наклонную черту общая и нижняя облачность в баллах и высота нижней границы облаков в метрах; квадратными скобками обозначены формы облаков: Ci - перистые, Cs - перисто-слоистые, Cc - перисто-кучевые, Ac - высококучевые, As - высокослоистые, Sc - слоисто-кучевые, Ns - слоисто-дождевые, Cu - кучевые, Cb - кучево-дождевые. Подробнее классификацию облаков см. в Атласе облаков (PDF).
T - Температура воздуха - температура, измеренная на высоте 2 м над землей.
Td - Температура точки росы - температура, при понижении до которой содержащийся в воздухе водяной пар достигнет насыщения.
f - Относительная влажность воздуха - влажноcть воздуха, измеренная на высоте 2 м над землей.
Te - Эффективная температура - температура, которую ощущает одетый по сезону человек в тени. Характеристика душности погоды. При расчете учитывается влияние влажности воздуха и скорости ветра на теплоощущения человека.
Tes - Эффективная температура на солнце - температура, которую ощущает человек, с поправкой на солнечный нагрев. Характеристика знойности погоды. Зависит от высоты солнца над горизонтом, облачности и скорости ветра. Ночью, в пасмурную погоду, а также при ветре 12 м/с и более поправка равна нулю.
P - Атмосферное давление - приведенное к уровню моря атмосферное давление.
Po - Атмосферное давление - измеренное на уровне метеостанции атмосферное давление.
Tmin - Минимальная температура - минимум температуры воздуха на высоте 2 м над землей.
Tmax - Максимальная температура - максимум температуры воздуха на высоте 2 м над землей.
R - Количество осадков - Количество выпавших осадков за период времени, мм. При наведении курсора мыши на число - период времени, за который выпало указанное количество осадков.
R24 - Количество осадков - Количество выпавших осадков за 24 часа, мм.
S - Снежный покров - Высота снежного покрова, см. При наведении курсора мыши на число - состояние снежного покрова и степень покрытия местности в баллах.